Time,TemperatureF,DewpointF,PressureIn,WindDirection,WindDirectionDegrees,WindSpeedMPH,WindSpeedGustMPH,Humidity,HourlyPrecipIn,Conditions,Clouds,dailyrainin,SoftwareType,DateUTC
2013-02-08 00:09:00,15.4,12.0,30.11,NNE,27,8.0,9.0,86,0.00,,,0.00,weatherlink.com 1.10,2013-02-08 05:09:00,
2013-02-08 00:24:00,15.2,12.0,30.11,North,7,5.0,10.0,85,0.00,,,0.00,weatherlink.com 1.10,2013-02-08 05:24:00,
2013-02-08 00:39:00,15.1,11.0,30.12,NNE,16,10.0,10.0,85,0.00,,,0.00,weatherlink.com 1.10,2013-02-08 05:39:00,
2013-02-08 01:09:00,14.9,11.0,30.12,NNE,25,9.0,10.0,84,0.00,,,0.00,weatherlink.com 1.10,2013-02-08 06:09:00,
2013-02-08 01:24:00,14.7,10.0,30.11,NE,41,9.0,11.0,83,0.00,,,0.00,weatherlink.com 1.10,2013-02-08 06:24:00,
2013-02-08 01:39:00,14.7,10.0,30.11,NNE,32,6.0,10.0,83,0.00,,,0.00,weatherlink.com 1.10,2013-02-08 06:39:00,
2013-02-08 01:54:00,14.5,11.0,30.11,NNE,22,5.0,7.0,85,0.00,,,0.00,weatherlink.com 1.10,2013-02-08 06:54:00,
2013-02-08 02:09:00,14.0,10.0,30.11,North,356,8.0,9.0,85,0.00,,,0.00,weatherlink.com 1.10,2013-02-08 07:09:00,
2013-02-08 02:24:00,13.8,10.0,30.11,North,355,5.0,10.0,85,0.00,,,0.00,weatherlink.com 1.10,2013-02-08 07:24:00,
2013-02-08 02:39:00,13.5,10.0,30.11,North,349,8.0,9.0,84,0.00,,,0.00,weatherlink.com 1.10,2013-02-08 07:39:00,
2013-02-08 02:54:00,13.3,9.0,30.11,North,5,7.0,9.0,84,0.00,,,0.00,weatherlink.com 1.10,2013-02-08 07:54:00,
2013-02-08 03:09:00,12.9,9.0,30.11,North,6,8.0,12.0,85,0.00,,,0.00,weatherlink.com 1.10,2013-02-08 08:09:00,
2013-02-08 03:24:00,12.6,9.0,30.11,North,352,8.0,11.0,85,0.00,,,0.00,weatherlink.com 1.10,2013-02-08 08:24:00,
2013-02-08 03:39:00,12.4,9.0,30.11,North,359,8.0,10.0,84,0.00,,,0.00,weatherlink.com 1.10,2013-02-08 08:39:00,
2013-02-08 03:54:00,12.4,9.0,30.11,North,349,9.0,11.0,84,0.00,,,0.00,weatherlink.com 1.10,2013-02-08 08:54:00,
2013-02-08 04:09:00,12.4,9.0,30.11,North,359,6.0,10.0,84,0.00,,,0.00,weatherlink.com 1.10,2013-02-08 09:09:00,
2013-02-08 04:25:00,12.4,9.0,30.11,NNE,16,8.0,10.0,84,0.00,,,0.00,weatherlink.com 1.10,2013-02-08 09:25:00,
2013-02-08 04:39:00,12.5,9.0,30.11,North,4,6.0,7.0,84,0.00,,,0.00,weatherlink.com 1.10,2013-02-08 09:39:00,
2013-02-08 04:54:00,12.6,9.0,30.12,North,356,6.0,8.0,84,0.00,,,0.00,weatherlink.com 1.10,2013-02-08 09:54:00,
2013-02-08 05:09:00,12.7,9.0,30.12,NNW,338,7.0,7.0,84,0.00,,,0.00,weatherlink.com 1.10,2013-02-08 10:09:00,
2013-02-08 05:24:00,12.8,9.0,30.13,NW,323,2.0,9.0,84,0.00,,,0.00,weatherlink.com 1.10,2013-02-08 10:24:00,
2013-02-08 05:39:00,12.8,9.0,30.13,NNW,347,7.0,8.0,85,0.00,,,0.00,weatherlink.com 1.10,2013-02-08 10:39:00,
2013-02-08 05:54:00,13.0,9.0,30.13,North,1,5.0,9.0,85,0.00,,,0.00,weatherlink.com 1.10,2013-02-08 10:54:00,
2013-02-08 06:09:00,13.0,9.0,30.13,North,349,9.0,13.0,85,0.00,,,0.00,weatherlink.com 1.10,2013-02-08 11:09:00,
2013-02-08 06:24:00,13.0,9.0,30.14,NNW,347,7.0,12.0,84,0.00,,,0.00,weatherlink.com 1.10,2013-02-08 11:24:00,
2013-02-08 06:40:00,12.9,9.0,30.14,NNW,346,7.0,14.0,83,0.00,,,0.00,weatherlink.com 1.10,2013-02-08 11:40:00,
2013-02-08 06:55:00,12.8,9.0,30.14,NNW,338,8.0,13.0,83,0.00,,,0.00,weatherlink.com 1.10,2013-02-08 11:55:00,
2013-02-08 07:10:00,12.5,8.0,30.15,NNW,327,6.0,13.0,83,0.00,,,0.00,weatherlink.com 1.10,2013-02-08 12:10:00,
2013-02-08 07:25:00,12.3,8.0,30.15,North,353,9.0,14.0,83,0.00,,,0.00,weatherlink.com 1.10,2013-02-08 12:25:00,
2013-02-08 07:40:00,12.1,8.0,30.15,NNW,340,13.0,13.0,82,0.00,,,0.00,weatherlink.com 1.10,2013-02-08 12:40:00,
2013-02-08 07:55:00,11.6,7.0,30.16,NNW,336,7.0,13.0,81,0.00,,,0.00,weatherlink.com 1.10,2013-02-08 12:55:00,
2013-02-08 08:10:00,10.9,6.0,30.16,NNW,344,7.0,12.0,80,0.00,,,0.00,weatherlink.com 1.10,2013-02-08 13:10:00,
2013-02-08 08:25:00,10.4,6.0,30.17,North,352,6.0,13.0,81,0.00,,,0.00,weatherlink.com 1.10,2013-02-08 13:25:00,
2013-02-08 08:40:00,10.2,5.0,30.17,North,354,9.0,13.0,80,0.00,,,0.00,weatherlink.com 1.10,2013-02-08 13:40:00,
2013-02-08 08:55:00,9.9,5.0,30.18,NNW,330,8.0,14.0,80,0.00,,,0.00,weatherlink.com 1.10,2013-02-08 13:55:00,
2013-02-08 09:10:00,9.7,4.0,30.18,WNW,302,5.0,14.0,79,0.00,,,0.00,weatherlink.com 1.10,2013-02-08 14:10:00,
2013-02-08 09:25:00,10.6,5.0,30.19,NNW,333,9.0,12.0,77,0.00,,,0.00,weatherlink.com 1.10,2013-02-08 14:25:00,
2013-02-08 09:40:00,10.6,4.0,30.19,NNW,340,9.0,15.0,75,0.00,,,0.00,weatherlink.com 1.10,2013-02-08 14:40:00,
2013-02-08 09:55:00,10.6,4.0,30.20,NNW,340,10.0,15.0,75,0.00,,,0.00,weatherlink.com 1.10,2013-02-08 14:55:00,
2013-02-08 10:10:00,10.6,4.0,30.21,NNW,347,14.0,14.0,74,0.00,,,0.00,weatherlink.com 1.10,2013-02-08 15:10:00,
2013-02-08 10:26:00,10.6,4.0,30.20,North,349,8.0,14.0,74,0.00,,,0.00,weatherlink.com 1.10,2013-02-08 15:26:00,
2013-02-08 10:41:00,11.5,4.0,30.21,NNW,344,10.0,15.0,72,0.00,,,0.00,weatherlink.com 1.10,2013-02-08 15:41:00,
2013-02-08 10:56:00,11.7,4.0,30.22,North,356,9.0,16.0,72,0.00,,,0.00,weatherlink.com 1.10,2013-02-08 15:56:00,
2013-02-08 11:11:00,12.5,5.0,30.22,NNW,344,14.0,15.0,71,0.00,,,0.00,weatherlink.com 1.10,2013-02-08 16:11:00,
2013-02-08 11:26:00,13.3,5.0,30.22,North,354,13.0,16.0,69,0.00,,,0.00,weatherlink.com 1.10,2013-02-08 16:26:00,
2013-02-08 11:41:00,13.9,5.0,30.23,NNW,342,9.0,16.0,69,0.00,,,0.00,weatherlink.com 1.10,2013-02-08 16:41:00,
2013-02-08 11:56:00,14.7,6.0,30.23,NNW,338,9.0,14.0,68,0.00,,,0.00,weatherlink.com 1.10,2013-02-08 16:56:00,
2013-02-08 12:11:00,15.1,6.0,30.23,NNW,347,7.0,11.0,68,0.00,,,0.00,weatherlink.com 1.10,2013-02-08 17:11:00,
2013-02-08 12:26:00,15.4,7.0,30.22,North,8,2.0,4.0,68,0.00,,,0.00,weatherlink.com 1.10,2013-02-08 17:26:00,
2013-02-08 12:41:00,16.7,7.0,30.22,North,353,6.0,10.0,66,0.00,,,0.00,weatherlink.com 1.10,2013-02-08 17:41:00,
2013-02-08 12:56:00,17.3,7.0,30.21,NNW,344,7.0,13.0,65,0.00,,,0.00,weatherlink.com 1.10,2013-02-08 17:56:00,
2013-02-08 13:11:00,17.7,8.0,30.21,NNW,338,8.0,12.0,65,0.00,,,0.00,weatherlink.com 1.10,2013-02-08 18:11:00,
2013-02-08 13:27:00,17.3,9.0,30.21,North,353,7.0,7.0,70,0.00,,,0.00,weatherlink.com 1.10,2013-02-08 18:27:00,
2013-02-08 13:57:00,18.6,9.0,30.20,North,1,2.0,6.0,66,0.00,,,0.00,weatherlink.com 1.10,2013-02-08 18:57:00,
2013-02-08 14:12:00,18.5,9.0,30.20,NNW,347,5.0,7.0,66,0.00,,,0.00,weatherlink.com 1.10,2013-02-08 19:12:00,
2013-02-08 14:27:00,18.7,9.0,30.21,North,349,6.0,9.0,66,0.00,,,0.00,weatherlink.com 1.10,2013-02-08 19:27:00,
2013-02-08 14:42:00,19.0,9.0,30.20,North,349,6.0,8.0,65,0.00,,,0.00,weatherlink.com 1.10,2013-02-08 19:42:00,
2013-02-08 14:57:00,19.5,9.0,30.20,North,354,9.0,10.0,63,0.00,,,0.00,weatherlink.com 1.10,2013-02-08 19:57:00,
2013-02-08 15:12:00,20.8,11.0,30.21,WNW,291,1.0,8.0,67,0.00,,,0.00,weatherlink.com 1.10,2013-02-08 20:12:00,
2013-02-08 15:27:00,21.1,11.0,30.21,NNE,13,1.0,4.0,66,0.00,,,0.00,weatherlink.com 1.10,2013-02-08 20:27:00,
2013-02-08 15:42:00,21.2,11.0,30.22,West,263,1.0,5.0,66,0.00,,,0.00,weatherlink.com 1.10,2013-02-08 20:42:00,
2013-02-08 15:57:00,21.0,11.0,30.22,West,281,0.0,7.0,66,0.00,,,0.00,weatherlink.com 1.10,2013-02-08 20:57:00,
2013-02-08 16:12:00,20.5,11.0,30.22,WNW,302,6.0,7.0,66,0.00,,,0.00,weatherlink.com 1.10,2013-02-08 21:12:00,
2013-02-08 16:27:00,20.6,11.0,30.23,WNW,293,2.0,6.0,67,0.00,,,0.00,weatherlink.com 1.10,2013-02-08 21:27:00,
2013-02-08 16:42:00,20.1,11.0,30.23,WSW,242,2.0,6.0,67,0.00,,,0.00,weatherlink.com 1.10,2013-02-08 21:42:00,
2013-02-08 16:57:00,18.9,11.0,30.23,NW,308,2.0,5.0,70,0.00,,,0.00,weatherlink.com 1.10,2013-02-08 21:57:00,
2013-02-08 17:13:00,17.8,10.0,30.24,WSW,242,3.0,7.0,72,0.00,,,0.00,weatherlink.com 1.10,2013-02-08 22:13:00,
2013-02-08 17:28:00,16.9,10.0,30.24,WNW,302,0.0,7.0,73,0.00,,,0.00,weatherlink.com 1.10,2013-02-08 22:28:00,
2013-02-08 17:43:00,15.8,9.0,30.25,West,277,4.0,5.0,75,0.00,,,0.00,weatherlink.com 1.10,2013-02-08 22:43:00,
2013-02-08 17:58:00,14.6,9.0,30.25,West,263,1.0,5.0,77,0.00,,,0.00,weatherlink.com 1.10,2013-02-08 22:58:00,
2013-02-08 18:13:00,13.6,8.0,30.25,West,272,1.0,3.0,79,0.00,,,0.00,weatherlink.com 1.10,2013-02-08 23:13:00,
2013-02-08 18:28:00,12.2,7.0,30.26,WSW,257,0.0,2.0,80,0.00,,,0.00,weatherlink.com 1.10,2013-02-08 23:28:00,
2013-02-08 18:43:00,10.7,7.0,30.27,West,259,0.0,2.0,84,0.00,,,0.00,weatherlink.com 1.10,2013-02-08 23:43:00,
2013-02-08 18:58:00,8.5,4.0,30.27,West,262,0.0,1.0,82,0.00,,,0.00,weatherlink.com 1.10,2013-02-08 23:58:00,
2013-02-08 19:13:00,7.5,4.0,30.27,WSW,240,1.0,1.0,87,0.00,,,0.00,weatherlink.com 1.10,2013-02-09 00:13:00,
2013-02-08 19:28:00,6.3,3.0,30.28,West,260,0.0,1.0,86,0.00,,,0.00,weatherlink.com 1.10,2013-02-09 00:28:00,
2013-02-08 19:43:00,3.5,-2.0,30.29,SE,127,0.0,1.0,79,0.00,,,0.00,weatherlink.com 1.10,2013-02-09 00:43:00,
2013-02-08 19:58:00,1.3,-1.0,30.29,SE,127,0.0,0.0,91,0.00,,,0.00,weatherlink.com 1.10,2013-02-09 00:58:00,
2013-02-08 20:13:00,1.5,-1.0,30.29,SW,225,0.0,4.0,89,0.00,,,0.00,weatherlink.com 1.10,2013-02-09 01:13:00,
2013-02-08 20:29:00,3.2,1.0,30.29,East,96,0.0,1.0,88,0.00,,,0.00,weatherlink.com 1.10,2013-02-09 01:29:00,
2013-02-08 20:44:00,-0.8,-3.0,30.29,West,262,0.0,1.0,89,0.00,,,0.00,weatherlink.com 1.10,2013-02-09 01:44:00,
2013-02-08 20:59:00,3.9,1.0,30.29,WNW,282,0.0,2.0,86,0.00,,,0.00,weatherlink.com 1.10,2013-02-09 01:59:00,
2013-02-08 21:14:00,1.8,-4.0,30.29,NNE,18,0.0,3.0,75,0.00,,,0.00,weatherlink.com 1.10,2013-02-09 02:14:00,
2013-02-08 21:29:00,-1.1,-4.0,30.29,NW,318,0.0,1.0,86,0.00,,,0.00,weatherlink.com 1.10,2013-02-09 02:29:00,
2013-02-08 21:44:00,3.0,-1.0,30.29,NNW,328,1.0,3.0,84,0.00,,,0.00,weatherlink.com 1.10,2013-02-09 02:44:00,
2013-02-08 21:59:00,2.8,-1.0,30.30,West,260,0.0,3.0,84,0.00,,,0.00,weatherlink.com 1.10,2013-02-09 02:59:00,
2013-02-08 22:14:00,2.6,0.0,30.31,West,263,1.0,2.0,87,0.00,,,0.00,weatherlink.com 1.10,2013-02-09 03:14:00,
2013-02-08 22:29:00,-2.4,-8.0,30.32,SE,146,0.0,2.0,78,0.00,,,0.00,weatherlink.com 1.10,2013-02-09 03:29:00,
2013-02-08 22:44:00,-6.4,-10.0,30.32,ESE,120,0.0,0.0,86,0.00,,,0.00,weatherlink.com 1.10,2013-02-09 03:44:00,
2013-02-08 22:59:00,-7.2,-10.0,30.32,ESE,120,0.0,0.0,87,0.00,,,0.00,weatherlink.com 1.10,2013-02-09 03:59:00,
2013-02-08 23:14:00,-6.3,-8.0,30.32,ESE,120,0.0,1.0,91,0.00,,,0.00,weatherlink.com 1.10,2013-02-09 04:14:00,
2013-02-08 23:29:00,-5.6,-8.0,30.31,ESE,120,0.0,0.0,90,0.00,,,0.00,weatherlink.com 1.10,2013-02-09 04:29:00,
2013-02-08 23:44:00,-6.7,-9.0,30.31,SE,130,0.0,0.0,89,0.00,,,0.00,weatherlink.com 1.10,2013-02-09 04:44:00,